TimePST,TemperatureF,Dew PointF,Humidity,Sea Level PressureIn,VisibilityMPH,Wind Direction,Wind SpeedMPH,Gust SpeedMPH,PrecipitationIn,Events,Conditions,WindDirDegrees,DateUTC
12:53 AM,42.1,30.9,65,30.13,10.0,West,3.5,-,N/A,,Clear,270,2013-01-21 08:53:00
1:53 AM,42.1,32.0,67,30.13,10.0,NNE,4.6,-,N/A,,Clear,20,2013-01-21 09:53:00
2:53 AM,42.1,30.9,65,30.12,10.0,NNE,5.8,-,N/A,,Clear,30,2013-01-21 10:53:00
3:53 AM,44.1,30.0,58,30.10,10.0,North,5.8,-,N/A,,Clear,10,2013-01-21 11:53:00
4:53 AM,41.0,28.9,62,30.09,10.0,NNE,4.6,-,N/A,,Clear,20,2013-01-21 12:53:00
5:53 AM,39.0,28.0,65,30.09,10.0,NNW,3.5,-,N/A,,Clear,330,2013-01-21 13:53:00
6:53 AM,39.0,28.0,65,30.10,10.0,North,3.5,-,N/A,,Clear,350,2013-01-21 14:53:00
7:53 AM,44.1,28.9,55,30.12,10.0,NNE,3.5,-,N/A,,Clear,30,2013-01-21 15:53:00
8:53 AM,48.0,30.9,52,30.13,10.0,Calm,Calm,-,N/A,,Clear,0,2013-01-21 16:53:00
9:53 AM,57.0,32.0,39,30.15,10.0,East,5.8,-,N/A,,Clear,100,2013-01-21 17:53:00
10:53 AM,61.0,30.0,31,30.17,10.0,South,3.5,-,N/A,,Clear,170,2013-01-21 18:53:00
11:53 AM,66.0,32.0,28,30.14,10.0,East,5.8,-,N/A,,Clear,90,2013-01-21 19:53:00
12:53 PM,69.1,30.0,23,30.12,10.0,ENE,4.6,-,N/A,,Clear,70,2013-01-21 20:53:00
1:53 PM,71.1,27.0,19,30.10,10.0,Variable,3.5,-,N/A,,Clear,0,2013-01-21 21:53:00
2:53 PM,72.0,28.0,20,30.09,10.0,East,4.6,-,N/A,,Clear,90,2013-01-21 22:53:00
3:53 PM,70.0,34.0,27,30.07,10.0,East,6.9,-,N/A,,Clear,90,2013-01-21 23:53:00
4:53 PM,66.0,37.0,34,30.06,10.0,ENE,4.6,-,N/A,,Clear,70,2013-01-22 00:53:00
5:53 PM,60.1,37.0,42,30.06,10.0,NNE,3.5,-,N/A,,Clear,30,2013-01-22 01:53:00
6:53 PM,55.0,37.0,51,30.08,10.0,NNW,3.5,-,N/A,,Clear,330,2013-01-22 02:53:00
7:53 PM,51.1,35.1,54,30.10,10.0,NW,4.6,-,N/A,,Clear,320,2013-01-22 03:53:00
8:53 PM,48.9,34.0,56,30.11,10.0,NW,3.5,-,N/A,,Clear,310,2013-01-22 04:53:00
9:53 PM,48.0,32.0,54,30.12,10.0,North,3.5,-,N/A,,Clear,360,2013-01-22 05:53:00
10:53 PM,46.0,33.1,61,30.12,10.0,Calm,Calm,-,N/A,,Clear,0,2013-01-22 06:53:00
11:53 PM,46.9,35.1,63,30.11,10.0,Calm,Calm,-,N/A,,Clear,0,2013-01-22 07:53:00